Location: Newark
(14.6670°N, 74.3000°E)
Time: 11:24:58
(UTC+00:00)

Hubble Space Telescope - Visible Passes

Search period start: 15 October 2019 00:00
Search period end: 25 October 2019 00:00
Orbit: 536 x 540 km, 28.5° (Epoch: 14 October)

Date Brightness Start Highest point End Pass type
(mag) Time Alt. Az. Time Alt. Az. Time Alt. Az.
15 Oct 2.1 14:11:42 10° W 14:15:25 32° SSW 14:16:28 28° S visible
16 Oct 2.8 14:01:29 10° W 14:04:50 24° SSW 14:07:11 15° SSE visible
17 Oct 3.3 13:51:27 10° WSW 13:54:14 17° SSW 13:57:01 10° SSE visible
18 Oct 3.6 13:41:50 10° WSW 13:43:38 13° SSW 13:45:27 10° S visible
22 Oct 3.6 23:17:40 10° S 23:19:14 12° SSE 23:20:48 10° SE visible
23 Oct 3.2 23:07:30 15° S 23:08:39 17° SSE 23:11:17 10° ESE visible
24 Oct 2.8 22:58:19 22° SE 22:58:19 22° SE 23:01:19 10° E visible
